Location: Hopville
(44.8032°N, 123.1329°W)
Time: 03:28:59
(UTC+00:00)

Cosmos 2058 Rocket - Pass Details

Date: 24 January 2021
Orbit: 611 x 638 km, 82.5° (Epoch: 26 February)

Event Time Altitude Azimuth Distance (km) Brightness Sun altitude
Rises 14:59:28 0° 188° (S) 2,874 6.6 -7.4°
Reaches altitude 10° 15:01:40 10° 188° (S) 1,977 5.8 -7.0°
Maximum altitude 15:06:04 88° 277° (W) 629 3.1 -6.3°
Drops below altitude 10° 15:10:32 10° 8° (N) 2,011 5.6 -5.6°
Sets 15:12:47 0° 9° (N) 2,927 6.4 -5.2°
